Time,TemperatureF,DewpointF,PressureIn,WindDirection,WindDirectionDegrees,WindSpeedMPH,WindSpeedGustMPH,Humidity,HourlyPrecipIn,Conditions,Clouds,dailyrainin,SolarRadiationWatts/m^2,SoftwareType,DateUTC
2013-12-08 00:02:00,-11.0,-17.0,-100.00,WSW,243,0.0,0.0,72,0.00,,,0.00,0.000000,,2013-12-08 07:02:00,
2013-12-08 00:42:00,-11.0,-17.0,-100.00,WSW,245,0.0,0.0,72,0.00,,,-99.99,0.000000,,2013-12-08 07:42:00,
2013-12-08 00:53:00,-11.0,-17.0,-100.00,WSW,245,0.0,0.0,72,0.00,,,-99.99,0.000000,,2013-12-08 07:53:00,
2013-12-08 01:02:00,-11.0,-17.0,-100.00,WSW,245,0.0,0.0,72,0.00,,,-99.99,0.000000,,2013-12-08 08:02:00,
2013-12-08 01:43:00,-11.0,-17.0,-100.00,WSW,256,0.0,0.0,73,0.00,,,0.00,0.000000,,2013-12-08 08:43:00,
2013-12-08 01:52:00,-11.0,-17.0,-100.00,WSW,256,0.0,0.0,73,0.00,,,0.00,0.000000,,2013-12-08 08:52:00,
2013-12-08 02:02:00,-11.0,-17.0,-100.00,WSW,256,0.0,0.0,73,0.00,,,0.00,0.000000,,2013-12-08 09:02:00,
2013-12-08 02:43:00,-11.0,-17.0,-100.00,WSW,242,0.0,0.0,73,0.00,,,0.00,0.000000,,2013-12-08 09:43:00,
2013-12-08 02:53:00,-11.0,-17.0,-100.00,WSW,242,0.0,0.0,73,0.00,,,0.00,0.000000,,2013-12-08 09:53:00,
2013-12-08 03:03:00,-11.0,-17.0,-100.00,WSW,242,0.0,0.0,73,0.00,,,0.00,0.000000,,2013-12-08 10:03:00,
2013-12-08 03:43:00,-11.0,-17.0,-100.00,West,265,0.0,0.0,73,0.00,,,0.00,0.000000,,2013-12-08 10:43:00,
2013-12-08 03:53:00,-11.0,-17.0,-100.00,West,265,0.0,0.0,73,0.00,,,0.00,0.000000,,2013-12-08 10:53:00,
2013-12-08 04:02:00,-11.0,-17.0,-100.00,West,265,0.0,0.0,73,0.00,,,0.00,0.000000,,2013-12-08 11:02:00,
2013-12-08 04:43:00,-11.0,-17.0,-100.00,SSW,209,0.0,0.0,73,0.00,,,0.00,0.000000,,2013-12-08 11:43:00,
2013-12-08 04:52:00,-11.0,-17.0,-100.00,SSW,209,0.0,0.0,73,0.00,,,0.00,0.000000,,2013-12-08 11:52:00,
2013-12-08 05:02:00,-11.0,-17.0,-100.00,SSW,209,0.0,0.0,73,0.00,,,0.00,0.000000,,2013-12-08 12:02:00,
2013-12-08 05:42:00,-12.0,-18.0,-100.00,SW,234,0.0,0.0,73,0.00,,,0.00,0.000000,,2013-12-08 12:42:00,
2013-12-08 05:52:00,-12.0,-18.0,-100.00,SW,234,0.0,0.0,73,0.00,,,0.00,0.000000,,2013-12-08 12:52:00,
2013-12-08 06:01:00,-12.0,-18.0,-100.00,SW,234,0.0,0.0,73,0.00,,,0.00,0.000000,,2013-12-08 13:01:00,
2013-12-08 06:42:00,-11.0,-17.0,-100.00,SSW,209,0.0,0.0,73,0.00,,,0.00,0.000000,,2013-12-08 13:42:00,
2013-12-08 06:52:00,-11.0,-17.0,-100.00,SSW,209,0.0,0.0,73,0.00,,,0.00,0.000000,,2013-12-08 13:52:00,
2013-12-08 07:02:00,-11.0,-17.0,-100.00,SSW,209,0.0,0.0,73,0.00,,,0.00,0.000000,,2013-12-08 14:02:00,
2013-12-08 07:42:00,-11.0,-17.0,-100.00,SW,230,0.0,0.0,74,0.00,,,0.00,0.000000,,2013-12-08 14:42:00,
2013-12-08 07:52:00,-11.0,-17.0,-100.00,SW,230,0.0,0.0,74,0.00,,,0.00,0.000000,,2013-12-08 14:52:00,
2013-12-08 08:02:00,-11.0,-17.0,-100.00,SW,230,0.0,0.0,74,0.00,,,0.00,0.000000,,2013-12-08 15:02:00,
2013-12-08 08:43:00,-10.0,-16.0,-100.00,SW,230,0.0,0.0,74,0.00,,,0.00,0.000000,,2013-12-08 15:43:00,
2013-12-08 08:54:00,-10.0,-16.0,-100.00,SW,230,0.0,0.0,74,0.00,,,0.00,0.000000,,2013-12-08 15:54:00,
2013-12-08 09:04:00,-10.0,-16.0,-100.00,SW,230,0.0,0.0,74,0.00,,,0.00,0.000000,,2013-12-08 16:04:00,
2013-12-08 09:43:00,-10.0,-16.0,-100.00,West,272,0.0,0.0,74,0.00,,,-99.99,11.000000,,2013-12-08 16:43:00,
2013-12-08 09:53:00,-10.0,-16.0,-100.00,West,272,0.0,0.0,74,0.00,,,-99.99,11.000000,,2013-12-08 16:53:00,
2013-12-08 10:02:00,-10.0,-16.0,-100.00,West,272,0.0,0.0,74,0.00,,,-99.99,11.000000,,2013-12-08 17:02:00,
2013-12-08 10:43:00,-8.0,-14.0,-100.00,West,276,0.0,0.0,74,0.00,,,-99.99,38.000000,,2013-12-08 17:43:00,
2013-12-08 10:52:00,-8.0,-14.0,-100.00,West,276,0.0,0.0,74,0.00,,,-99.99,38.000000,,2013-12-08 17:52:00,
2013-12-08 11:02:00,-8.0,-14.0,-100.00,West,276,0.0,0.0,74,0.00,,,-99.99,38.000000,,2013-12-08 18:02:00,
2013-12-08 11:42:00,-5.0,-11.0,-100.00,West,271,0.0,0.0,76,0.00,,,-99.99,87.000000,,2013-12-08 18:42:00,
2013-12-08 11:52:00,-5.0,-11.0,-100.00,West,271,0.0,0.0,76,0.00,,,-99.99,87.000000,,2013-12-08 18:52:00,
2013-12-08 12:02:00,-5.0,-11.0,-100.00,West,271,0.0,0.0,76,0.00,,,-99.99,87.000000,,2013-12-08 19:02:00,
2013-12-08 14:43:00,-7.0,-13.0,-100.00,NW,305,0.0,0.0,76,-99.99,,,-99.99,76.000000,,2013-12-08 21:43:00,
2013-12-08 14:53:00,-7.0,-13.0,-100.00,NW,305,0.0,0.0,76,-99.99,,,-99.99,76.000000,,2013-12-08 21:53:00,
2013-12-08 15:03:00,-7.0,-13.0,-100.00,NW,305,0.0,0.0,76,-99.99,,,-99.99,76.000000,,2013-12-08 22:03:00,
2013-12-08 15:43:00,-8.0,-14.0,-100.00,WNW,299,0.0,0.0,75,0.00,,,-99.99,46.000000,,2013-12-08 22:43:00,
2013-12-08 15:53:00,-8.0,-14.0,-100.00,WNW,299,0.0,0.0,75,0.00,,,-99.99,46.000000,,2013-12-08 22:53:00,
2013-12-08 16:03:00,-8.0,-14.0,-100.00,WNW,299,0.0,0.0,75,0.00,,,-99.99,46.000000,,2013-12-08 23:03:00,
2013-12-08 17:42:00,-10.0,-16.0,-100.00,WNW,295,0.0,0.0,75,-99.99,,,0.00,10.000000,,2013-12-09 00:42:00,
2013-12-08 17:52:00,-10.0,-16.0,-100.00,WNW,295,0.0,0.0,75,-99.99,,,0.00,10.000000,,2013-12-09 00:52:00,
2013-12-08 18:02:00,-10.0,-16.0,-100.00,WNW,295,0.0,0.0,75,-99.99,,,0.00,10.000000,,2013-12-09 01:02:00,
2013-12-08 18:42:00,-11.0,-17.0,-100.00,WNW,282,0.0,0.0,73,0.00,,,0.00,0.000000,,2013-12-09 01:42:00,
2013-12-08 18:52:00,-11.0,-17.0,-100.00,WNW,282,0.0,0.0,73,0.00,,,0.00,0.000000,,2013-12-09 01:52:00,
2013-12-08 19:02:00,-11.0,-17.0,-100.00,WNW,282,0.0,0.0,73,0.00,,,0.00,0.000000,,2013-12-09 02:02:00,
2013-12-08 19:42:00,-12.0,-18.0,-100.00,West,262,0.0,0.0,72,0.00,,,0.00,0.000000,,2013-12-09 02:42:00,
2013-12-08 19:53:00,-12.0,-18.0,-100.00,West,262,0.0,0.0,72,0.00,,,0.00,0.000000,,2013-12-09 02:53:00,
2013-12-08 20:02:00,-12.0,-18.0,-100.00,West,262,0.0,0.0,72,0.00,,,0.00,0.000000,,2013-12-09 03:02:00,
2013-12-08 20:43:00,-12.0,-18.0,-100.00,SW,216,0.0,0.0,72,0.00,,,0.00,0.000000,,2013-12-09 03:43:00,
2013-12-08 20:53:00,-12.0,-18.0,-100.00,SW,216,0.0,0.0,72,0.00,,,0.00,0.000000,,2013-12-09 03:53:00,
2013-12-08 21:03:00,-12.0,-18.0,-100.00,SW,216,0.0,0.0,72,0.00,,,0.00,0.000000,,2013-12-09 04:03:00,
2013-12-08 21:43:00,-11.0,-17.0,-100.00,SSW,195,0.0,0.0,73,0.00,,,0.00,0.000000,,2013-12-09 04:43:00,
2013-12-08 21:52:00,-11.0,-17.0,-100.00,SSW,195,0.0,0.0,73,0.00,,,0.00,0.000000,,2013-12-09 04:52:00,
2013-12-08 22:02:00,-11.0,-17.0,-100.00,SSW,195,0.0,0.0,73,0.00,,,0.00,0.000000,,2013-12-09 05:02:00,
2013-12-08 22:42:00,-11.0,-17.0,-100.00,South,180,0.0,0.0,74,0.00,,,0.00,0.000000,,2013-12-09 05:42:00,
2013-12-08 22:52:00,-11.0,-17.0,-100.00,South,180,0.0,0.0,74,0.00,,,0.00,0.000000,,2013-12-09 05:52:00,
2013-12-08 23:01:00,-11.0,-17.0,-100.00,South,180,0.0,0.0,74,0.00,,,0.00,0.000000,,2013-12-09 06:01:00,
2013-12-08 23:42:00,-10.0,-16.0,-100.00,SW,215,0.0,0.0,74,0.00,,,0.00,0.000000,,2013-12-09 06:42:00,
2013-12-08 23:52:00,-10.0,-16.0,-100.00,SW,215,0.0,0.0,74,0.00,,,0.00,0.000000,,2013-12-09 06:52:00,